Location: Cosy Dell
(34.2789°N, 117.4537°W)
Time: 21:05:48
(UTC+00:00)

Cosmos 2100 Rocket - Pass Details

Date: 14 July 2020
Orbit: 955 x 1002 km, 82.9° (Epoch: 13 August)

Event Time Altitude Azimuth Distance (km) Brightness Sun altitude
Exits shadow 09:28:45 58° 296° (WNW) 1,138 4.2 -29.9°
Drops below altitude 10° 09:34:30 10° 358° (N) 2,727 7.1 -29.4°
Sets 09:37:04 0° 2° (N) 3,671 8.0 -29.2°
